| time (UTC) | temp F | wind direction | speed knots | gust knots | rain 1hr in | rain 24hr in | rain mn in | humidity % | barometer mb |
| 20260831203056 | 98 | 130 | 1.7 | 0.0 | 0.00 | 0.00 | 0.00 | 42 | 1012.0 |
| 20260831201553 | 97 | 110 | 2.6 | 0.0 | 0.00 | 0.00 | 0.00 | 43 | 1012.3 |
| 20260831200056 | 97 | 95 | 1.7 | 0.0 | 0.00 | 0.00 | 0.00 | 43 | 1012.5 |
| 20260831194617 | 98 | 201 | 1.7 | 0.0 | 0.00 | 0.00 | 0.00 | 44 | 1012.7 |
| 20260831193050 | 97 | 131 | 1.7 | 0.0 | 0.00 | 0.00 | 0.00 | 43 | 1012.8 |
| 20260831191551 | 98 | 76 | 1.7 | 0.0 | 0.00 | 0.00 | 0.00 | 44 | 1013.0 |
| 20260831190047 | 96 | 66 | 1.7 | 0.0 | 0.00 | 0.00 | 0.00 | 46 | 1013.3 |
| 20260831184546 | 96 | 143 | 1.7 | 0.0 | 0.00 | 0.00 | 0.00 | 47 | 1013.4 |
| 20260831183042 | 96 | 185 | 1.7 | 0.0 | 0.00 | 0.00 | 0.00 | 47 | 1013.4 |
| 20260831181541 | 95 | 207 | 2.6 | 0.0 | 0.00 | 0.00 | 0.00 | 50 | 1013.6 |
| 20260831180040 | 94 | 189 | 2.6 | 0.0 | 0.00 | 0.00 | 0.00 | 51 | 1013.8 |
| 20260831174537 | 94 | 195 | 2.6 | 0.0 | 0.00 | 0.00 | 0.00 | 51 | 1014.1 |
| 20260831173034 | 93 | 87 | 1.7 | 0.0 | 0.00 | 0.00 | 0.00 | 54 | 1014.2 |
| 20260831171534 | 93 | 78 | 1.7 | 0.0 | 0.00 | 0.00 | 0.00 | 55 | 1014.4 |
| 20260831170032 | 93 | 122 | 1.7 | 0.0 | 0.00 | 0.00 | 0.00 | 55 | 1014.5 |
| 20260831164529 | 92 | 226 | 0.9 | 0.0 | 0.00 | 0.00 | 0.00 | 58 | 1014.5 |
| 20260831163030 | 91 | 144 | 1.7 | 0.0 | 0.00 | 0.00 | 0.00 | 58 | 1014.5 |
| 20260831161530 | 90 | 175 | 1.7 | 0.0 | 0.00 | 0.00 | 0.00 | 61 | 1014.5 |
| 20260831160021 | 89 | 286 | 1.7 | 0.0 | 0.00 | 0.00 | 0.00 | 64 | 1014.5 |
| 20260831154519 | 88 | 124 | 1.7 | 0.0 | 0.00 | 0.00 | 0.00 | 64 | 1014.6 |
| 20260831153015 | 86 | 112 | 2.6 | 0.0 | 0.00 | 0.00 | 0.00 | 69 | 1014.5 |
| 20260831151516 | 87 | 165 | 1.7 | 0.0 | 0.00 | 0.00 | 0.00 | 69 | 1014.4 |
| 20260831150013 | 85 | 225 | 0.9 | 0.0 | 0.00 | 0.00 | 0.00 | 73 | 1014.3 |
| 20260831144508 | 84 | 122 | 1.7 | 0.0 | 0.00 | 0.00 | 0.00 | 74 | 1014.2 |
| 20260831143007 | 83 | 267 | 0.9 | 0.0 | 0.00 | 0.00 | 0.00 | 77 | 1014.0 |
| 20260831141506 | 81 | 199 | 1.7 | 0.0 | 0.00 | 0.00 | 0.00 | 80 | 1014.2 |
| 20260831140005 | 80 | 175 | 1.7 | 0.0 | 0.00 | 0.00 | 0.00 | 82 | 1013.9 |
| 20260831134504 | 79 | 154 | 0.9 | 0.0 | 0.00 | 0.00 | 0.00 | 85 | 1013.8 |
| 20260831133005 | 78 | 185 | 0.9 | 0.0 | 0.00 | 0.00 | 0.00 | 87 | 1013.6 |
| 20260831131503 | 78 | 165 | 0.0 | 0.0 | 0.00 | 0.00 | 0.00 | 88 | 1013.7 |
| 20260831130001 | 77 | 229 | 0.0 | 0.0 | 0.00 | 0.00 | 0.00 | 88 | 1013.4 |
| 20260831124558 | 77 | 126 | 0.0 | 0.0 | 0.00 | 0.00 | 0.00 | 88 | 1013.3 |
| 20260831123100 | 77 | 192 | 0.0 | 0.0 | 0.00 | 0.00 | 0.00 | 88 | 1013.1 |
| 20260831121603 | 77 | 114 | 0.9 | 0.0 | 0.00 | 0.00 | 0.00 | 87 | 1013.1 |
| 20260831120057 | 77 | 191 | 0.9 | 0.0 | 0.00 | 0.00 | 0.00 | 87 | 1013.1 |
| 20260831114555 | 77 | 240 | 0.9 | 0.0 | 0.00 | 0.00 | 0.00 | 87 | 1013.1 |
| 20260831113056 | 77 | 99 | 0.9 | 0.0 | 0.00 | 0.00 | 0.00 | 86 | 1013.0 |
| 20260831111553 | 78 | 108 | 0.0 | 0.0 | 0.00 | 0.00 | 0.00 | 86 | 1013.0 |
| 20260831110051 | 78 | 180 | 0.9 | 0.0 | 0.00 | 0.00 | 0.00 | 85 | 1012.8 |
| 20260831104550 | 78 | 200 | 0.9 | 0.0 | 0.00 | 0.00 | 0.00 | 85 | 1012.9 |
| 20260831103049 | 78 | 180 | 0.9 | 0.0 | 0.00 | 0.00 | 0.00 | 85 | 1012.9 |
| 20260831101550 | 78 | 293 | 0.9 | 0.0 | 0.00 | 0.00 | 0.00 | 85 | 1012.9 |
| 20260831100048 | 78 | 118 | 0.9 | 0.0 | 0.00 | 0.00 | 0.00 | 85 | 1013.0 |
| 20260831094547 | 78 | 227 | 0.0 | 0.0 | 0.00 | 0.00 | 0.00 | 84 | 1013.0 |
| 20260831093047 | 78 | 179 | 0.9 | 0.0 | 0.00 | 0.00 | 0.00 | 84 | 1012.9 |
| 20260831091556 | 78 | 217 | 0.0 | 0.0 | 0.00 | 0.00 | 0.00 | 84 | 1012.8 |
| 20260831090046 | 78 | 156 | 0.9 | 0.0 | 0.00 | 0.00 | 0.00 | 84 | 1012.8 |
| 20260831084544 | 78 | 207 | 0.9 | 0.0 | 0.00 | 0.00 | 0.00 | 84 | 1012.9 |
| 20260831083044 | 79 | 155 | 0.9 | 0.0 | 0.00 | 0.00 | 0.00 | 83 | 1012.9 |
| 20260831081542 | 79 | 176 | 0.9 | 0.0 | 0.00 | 0.00 | 0.00 | 82 | 1012.9 |
| 20260831080040 | 79 | 205 | 1.7 | 0.0 | 0.00 | 0.00 | 0.00 | 80 | 1012.9 |
| 20260831074538 | 80 | 138 | 0.9 | 0.0 | 0.00 | 0.00 | 0.00 | 78 | 1012.7 |
| 20260831073037 | 80 | 93 | 1.7 | 0.0 | 0.00 | 0.00 | 0.00 | 77 | 1012.9 |
| 20260831071534 | 81 | 227 | 0.9 | 0.0 | 0.00 | 0.00 | 0.00 | 76 | 1012.9 |
| 20260831070033 | 81 | 180 | 0.9 | 0.0 | 0.00 | 0.00 | 0.00 | 74 | 1012.9 |
| 20260831064531 | 82 | 172 | 0.9 | 0.0 | 0.00 | 0.00 | 0.00 | 74 | 1013.0 |
| 20260831063029 | 82 | 235 | 0.9 | 0.0 | 0.00 | 0.00 | 0.00 | 73 | 1013.1 |
| 20260831061528 | 83 | 177 | 0.9 | 0.0 | 0.00 | 0.00 | 0.00 | 73 | 1013.0 |
| 20260831060026 | 83 | 224 | 0.9 | 0.0 | 0.00 | 0.00 | 0.00 | 72 | 1012.9 |
| 20260831054522 | 83 | 221 | 1.7 | 0.0 | 0.00 | 0.00 | 0.00 | 71 | 1012.8 |
| 20260831053020 | 84 | 122 | 1.7 | 0.0 | 0.00 | 0.00 | 0.00 | 69 | 1012.8 |
| 20260831051523 | 84 | 160 | 0.9 | 0.0 | 0.00 | 0.00 | 0.00 | 67 | 1012.6 |
| 20260831050015 | 84 | 133 | 0.9 | 0.0 | 0.00 | 0.00 | 0.00 | 66 | 1012.5 |
| 20260831044515 | 85 | 147 | 1.7 | 0.0 | 0.00 | 0.00 | 0.00 | 65 | 1012.4 |
| 20260831043014 | 86 | 149 | 1.7 | 0.0 | 0.00 | 0.00 | 0.00 | 64 | 1012.4 |
| 20260831041532 | 86 | 124 | 1.7 | 0.0 | 0.00 | 0.00 | 0.00 | 62 | 1012.4 |
| 20260831040013 | 86 | 136 | 1.7 | 0.0 | 0.00 | 0.00 | 0.00 | 62 | 1012.4 |
| 20260831034512 | 86 | 131 | 1.7 | 0.0 | 0.00 | 0.00 | 0.00 | 62 | 1012.2 |
| 20260831033012 | 87 | 181 | 2.6 | 0.0 | 0.00 | 0.00 | 0.00 | 62 | 1012.0 |
| 20260831031512 | 87 | 140 | 1.7 | 0.0 | 0.00 | 0.00 | 0.00 | 61 | 1011.9 |
| 20260831030012 | 88 | 139 | 2.6 | 0.0 | 0.00 | 0.00 | 0.00 | 60 | 1011.6 |
| 20260831024511 | 88 | 110 | 1.7 | 0.0 | 0.00 | 0.00 | 0.00 | 61 | 1011.4 |
| 20260831023010 | 89 | 153 | 2.6 | 0.0 | 0.00 | 0.00 | 0.00 | 59 | 1011.3 |
| 20260831021511 | 90 | 205 | 2.6 | 0.0 | 0.00 | 0.00 | 0.00 | 55 | 1011.0 |
| 20260831020012 | 90 | 151 | 0.9 | 0.0 | 0.00 | 0.00 | 0.00 | 49 | 1010.8 |
| 20260831014517 | 90 | 45 | 0.0 | 0.0 | 0.00 | 0.00 | 0.00 | 48 | 1010.4 |
| 20260831013009 | 91 | 142 | 0.9 | 0.0 | 0.00 | 0.00 | 0.00 | 47 | 1010.2 |
| 20260831011511 | 91 | 141 | 0.0 | 0.0 | 0.00 | 0.00 | 0.00 | 47 | 1010.1 |
| 20260831010007 | 92 | 109 | 0.0 | 0.0 | 0.00 | 0.00 | 0.00 | 46 | 1010.2 |
| 20260831004506 | 93 | 147 | 0.9 | 0.0 | 0.00 | 0.00 | 0.00 | 45 | 1010.1 |
| 20260831003006 | 93 | 124 | 0.9 | 0.0 | 0.00 | 0.00 | 0.00 | 45 | 1010.0 |
| 20260831001506 | 94 | 142 | 0.9 | 0.0 | 0.00 | 0.00 | 0.00 | 44 | 1009.9 |
| 20260831000006 | 95 | 131 | 1.7 | 0.0 | 0.00 | 0.00 | 0.00 | 42 | 1010.0 |
| 20260830234509 | 96 | 76 | 1.7 | 0.0 | 0.00 | 0.00 | 0.00 | 43 | 1010.0 |
| 20260830233011 | 97 | 141 | 1.7 | 0.0 | 0.00 | 0.00 | 0.00 | 42 | 1010.0 |
| 20260830231504 | 97 | 62 | 1.7 | 0.0 | 0.00 | 0.00 | 0.00 | 41 | 1010.0 |
| 20260830230004 | 97 | 190 | 1.7 | 0.0 | 0.00 | 0.00 | 0.00 | 40 | 1010.0 |
| 20260830224502 | 98 | 92 | 1.7 | 0.0 | 0.00 | 0.00 | 0.00 | 38 | 1010.1 |
| 20260830223133 | 98 | 155 | 2.6 | 0.0 | 0.00 | 0.00 | 0.00 | 40 | 1010.1 |
| 20260830221604 | 98 | 232 | 1.7 | 0.0 | 0.00 | 0.00 | 0.00 | 41 | 1010.1 |
| 20260830214557 | 98 | 95 | 2.6 | 0.0 | 0.00 | 0.00 | 0.00 | 41 | 1010.4 |
| 20260830213055 | 99 | 129 | 1.7 | 0.0 | 0.00 | 0.00 | 0.00 | 41 | 1010.6 |
| 20260830211555 | 99 | 143 | 1.7 | 0.0 | 0.00 | 0.00 | 0.00 | 40 | 1010.9 |
| 20260830210051 | 98 | 283 | 1.7 | 0.0 | 0.00 | 0.00 | 0.00 | 43 | 1011.2 |
| 20260830204548 | 97 | 96 | 1.7 | 0.0 | 0.00 | 0.00 | 0.00 | 44 | 1011.3 |